Weather History for Cando, ND

Change the Weather History Date:

Monday, February 25, 2013

  Actual Average (KDVL) Record (KDVL)
Temperature  
Mean Temperature 16 °F -  
Max Temperature 32 °F 27 °F 60 °F (1958)
Min Temperature 0 °F 10 °F -29 °F (1950)
Degree Days  
Heating Degree Days 49    
Moisture  
Dew Point 11 °F    
Average Humidity 89    
Maximum Humidity 100    
Minimum Humidity 69    
Precipitation  
Precipitation 0.00 in - - ()
Sea Level Pressure  
Sea Level Pressure 29.92 in    
Wind  
Wind Speed 7 mph (SSW)    
Max Wind Speed 13 mph    
Max Gust Speed -    
Visibility 8 miles    
Events Snow    
Averages and records for this station are not official NWS values.
T = Trace of Precipitation, MM = Missing Value Source: NWS Daily Summary

Daily Weather History Graph

Daily Weather History Graph

Search for Another Location

Airport:

Trip Planner

Search our weather history database for the weather conditions in past years. The results will help you decide how hot, cold, wet, or windy it might be!

Date:

Astronomy

Feb. 25, 2013 Rise Set
Actual Time 7:25 AM CST 6:15 PM CST
Civil Twilight 6:53 AM CST 6:46 PM CST
Nautical Twilight 6:17 AM CST 7:23 PM CST
Astronomical Twilight 5:41 AM CST 7:59 PM CST
Moon 6:35 PM CST (2/25) 6:53 AM CST (2/25)
Length of Visible Light 11h 52m
Length of Day
10h 49m
Full, 100% of the Moon is Illuminated
Feb 25
Full
Feb 25
Full
Mar 4
Last Quarter
Mar 11
New
Mar 19
First Quarter

Hourly Weather History & Observations

Time (CST) Temp. Windchill Dew Point Humidity Pressure Visibility Wind Dir Wind Speed Gust Speed Precip Events Conditions
12:15 AM 8.6 °F -2.6 °F 8.6 °F 100% 29.99 in 8.0 mi West 6.9 mph - N/A   Clear
12:35 AM 6.8 °F -2.0 °F 5.0 °F 92% 29.99 in 8.0 mi West 4.6 mph - N/A   Clear
12:55 AM 5.0 °F -6.9 °F 3.2 °F 92% 29.99 in 10.0 mi West 6.9 mph - N/A   Clear
1:15 AM 6.8 °F -7.8 °F 5.0 °F 92% 30.00 in 8.0 mi WNW 10.4 mph - N/A   Clear
1:35 AM 5.0 °F -8.1 °F 1.4 °F 85% 29.99 in 9.0 mi WNW 8.1 mph - N/A   Clear
1:55 AM 5.0 °F - 1.4 °F 85% 29.99 in 8.0 mi Calm Calm - N/A   Clear
2:15 AM 3.2 °F -7.8 °F 1.4 °F 92% 29.99 in 7.0 mi West 5.8 mph - N/A   Clear
2:35 AM 1.4 °F -9.9 °F -0.4 °F 92% 30.00 in 7.0 mi West 5.8 mph - N/A   Clear
2:55 AM -0.4 °F -10.4 °F -2.2 °F 92% 29.99 in 7.0 mi West 4.6 mph - N/A   Clear
3:15 AM -0.4 °F -12.0 °F -2.2 °F 92% 29.99 in 5.0 mi West 5.8 mph - N/A   Clear
3:35 AM 1.4 °F -8.3 °F -0.4 °F 92% 29.98 in 5.0 mi West 4.6 mph - N/A   Clear
3:55 AM 1.4 °F -8.3 °F -0.4 °F 92% 29.98 in 5.0 mi WSW 4.6 mph - N/A   Clear
4:15 AM 1.4 °F -8.3 °F -0.4 °F 92% 29.98 in 5.0 mi SW 4.6 mph - N/A   Clear
4:35 AM -0.4 °F -12.0 °F -2.2 °F 92% 29.98 in 5.0 mi WSW 5.8 mph - N/A   Clear
4:55 AM -0.4 °F -8.3 °F -2.2 °F 92% 29.98 in 4.0 mi SW 3.5 mph - N/A   Partly Cloudy
5:15 AM -0.4 °F - -4.0 °F 85% 29.98 in 3.0 mi Calm Calm - N/A   Mostly Cloudy
5:35 AM -0.4 °F -12.0 °F -2.2 °F 92% 29.98 in 3.0 mi SSE 5.8 mph - N/A Snow Light Snow
5:55 AM -0.4 °F -12.0 °F -2.2 °F 92% 29.98 in 3.0 mi SSE 5.8 mph - N/A   Overcast
6:15 AM 1.4 °F -11.3 °F -0.4 °F 92% 29.98 in 3.0 mi South 6.9 mph - N/A   Overcast
6:35 AM 1.4 °F -9.9 °F -0.4 °F 92% 29.97 in 3.0 mi South 5.8 mph - N/A   Overcast
6:55 AM 1.4 °F -12.5 °F -0.4 °F 92% 29.97 in 3.0 mi South 8.1 mph - N/A   Mostly Cloudy
7:15 AM 1.4 °F -9.9 °F -0.4 °F 92% 29.96 in 2.5 mi South 5.8 mph - N/A   Partly Cloudy
7:35 AM -0.4 °F -12.0 °F -2.2 °F 92% 29.96 in 2.0 mi South 5.8 mph - N/A   Scattered Clouds
7:55 AM -0.4 °F -12.0 °F -2.2 °F 92% 29.96 in 2.0 mi South 5.8 mph - N/A   Scattered Clouds
8:15 AM -0.4 °F -13.4 °F -4.0 °F 85% 29.96 in 1.8 mi SSE 6.9 mph - N/A   Clear
8:35 AM 1.4 °F -12.5 °F -2.2 °F 85% 29.95 in 1.8 mi SE 8.1 mph - N/A   Clear
8:55 AM 1.4 °F -12.5 °F -0.4 °F 92% 29.95 in 1.8 mi SE 8.1 mph - N/A   Clear
9:15 AM 5.0 °F -9.1 °F 1.4 °F 85% 29.95 in 3.0 mi SE 9.2 mph - N/A   Clear
9:35 AM 6.8 °F -4.8 °F 3.2 °F 85% 29.95 in 9.0 mi SE 6.9 mph - N/A   Clear
9:55 AM 8.6 °F -4.7 °F 6.8 °F 92% 29.93 in 10.0 mi SE 9.2 mph - N/A   Clear
10:15 AM 10.4 °F -1.5 °F 8.6 °F 92% 29.94 in 10.0 mi South 8.1 mph - N/A   Clear
10:35 AM 14.0 °F 3.9 °F 12.2 °F 93% 29.93 in 10.0 mi South 6.9 mph - N/A   Clear
10:55 AM 15.8 °F 7.2 °F 14.0 °F 93% 29.92 in 10.0 mi South 5.8 mph - N/A   Clear
11:15 AM 17.6 °F - 14.0 °F 86% 29.92 in 10.0 mi Calm Calm - N/A   Clear
11:35 AM 17.6 °F 10.7 °F 15.8 °F 93% 29.92 in 10.0 mi SSE 4.6 mph - N/A   Clear
11:55 AM 23.0 °F 15.8 °F 17.6 °F 80% 29.91 in 10.0 mi South 5.8 mph - N/A   Clear
12:15 PM 26.6 °F 20.0 °F 17.6 °F 69% 29.91 in 10.0 mi SW 5.8 mph - N/A   Clear
12:35 PM 28.4 °F 20.4 °F 19.4 °F 69% 29.90 in 10.0 mi SSW 8.1 mph - N/A   Clear
12:55 PM 28.4 °F 19.7 °F 21.2 °F 74% 29.89 in 10.0 mi SW 9.2 mph - N/A   Clear
1:15 PM 28.4 °F 19.7 °F 23.0 °F 80% 29.89 in 10.0 mi SW 9.2 mph - N/A   Clear
1:35 PM 30.2 °F 20.8 °F 24.8 °F 80% 29.89 in 10.0 mi SW 11.5 mph - N/A   Clear
1:55 PM 32.0 °F 22.5 °F 24.8 °F 75% 29.87 in 10.0 mi SW 12.7 mph - N/A   Clear
2:15 PM 32.0 °F 23.0 °F 24.8 °F 75% 29.87 in 10.0 mi SW 11.5 mph - N/A   Clear
2:35 PM 32.0 °F 24.2 °F 24.8 °F 75% 29.86 in 10.0 mi SW 9.2 mph - N/A   Clear
2:55 PM 32.0 °F 24.2 °F 26.6 °F 80% 29.86 in 10.0 mi SW 9.2 mph - N/A   Clear
3:15 PM 32.0 °F 23.0 °F 26.6 °F 80% 29.86 in 10.0 mi SW 11.5 mph - N/A   Clear
3:35 PM 32.0 °F 24.2 °F 24.8 °F 75% 29.86 in 10.0 mi SW 9.2 mph - N/A   Clear
3:55 PM 32.0 °F 22.5 °F 24.8 °F 75% 29.86 in 10.0 mi SW 12.7 mph - N/A   Clear
4:15 PM 32.0 °F 24.2 °F 26.6 °F 80% 29.87 in 10.0 mi SW 9.2 mph - N/A   Clear
4:35 PM 30.2 °F 23.4 °F 26.6 °F 86% 29.87 in 10.0 mi SW 6.9 mph - N/A   Clear
4:55 PM 30.2 °F 22.6 °F 24.8 °F 80% 29.87 in 10.0 mi SW 8.1 mph - N/A   Clear
5:15 PM 28.4 °F 20.4 °F 24.8 °F 86% 29.87 in 10.0 mi SW 8.1 mph - N/A   Clear
5:35 PM 28.4 °F 24.6 °F 24.8 °F 86% 29.87 in 10.0 mi South 3.5 mph - N/A   Clear
5:55 PM 24.8 °F 16.9 °F 23.0 °F 93% 29.87 in 10.0 mi South 6.9 mph - N/A   Clear
6:15 PM 24.8 °F 17.9 °F 23.0 °F 93% 29.87 in 10.0 mi SSE 5.8 mph - N/A   Clear
6:35 PM 19.4 °F 11.5 °F 17.6 °F 93% 29.87 in 10.0 mi SSE 5.8 mph - N/A   Clear
6:55 PM 17.6 °F 8.2 °F 17.6 °F 100% 29.87 in 10.0 mi SE 6.9 mph - N/A   Clear
7:15 PM 17.6 °F 7.3 °F 15.8 °F 93% 29.87 in 10.0 mi SSE 8.1 mph - N/A   Clear
7:35 PM 15.8 °F 4.2 °F 15.8 °F 100% 29.87 in 10.0 mi SE 9.2 mph - N/A   Clear
8:15 PM 15.8 °F 5.1 °F 14.0 °F 93% 29.87 in 10.0 mi SE 8.1 mph - N/A   Clear
8:35 PM 14.0 °F 2.9 °F 14.0 °F 100% 29.86 in 10.0 mi SE 8.1 mph - N/A   Clear
8:55 PM 14.0 °F 3.9 °F 14.0 °F 100% 29.86 in 10.0 mi SE 6.9 mph - N/A   Clear
9:15 PM 14.0 °F 3.9 °F 14.0 °F 100% 29.86 in 10.0 mi SE 6.9 mph - N/A   Clear
9:35 PM 14.0 °F 2.9 °F 12.2 °F 93% 29.86 in 10.0 mi SSE 8.1 mph - N/A   Clear
9:55 PM 14.0 °F 3.9 °F 14.0 °F 100% 29.86 in 10.0 mi SSE 6.9 mph - N/A   Clear
10:15 PM 14.0 °F 2.9 °F 12.2 °F 93% 29.86 in 10.0 mi South 8.1 mph - N/A   Clear
10:35 PM 10.4 °F -0.4 °F 10.4 °F 100% 29.86 in 10.0 mi South 6.9 mph - N/A   Clear
10:55 PM 12.2 °F 1.7 °F 10.4 °F 92% 29.86 in 10.0 mi South 6.9 mph - N/A   Clear
11:15 PM 10.4 °F 0.8 °F 10.4 °F 100% 29.86 in 10.0 mi South 5.8 mph - N/A   Clear
11:35 PM 14.0 °F 2.0 °F 12.2 °F 93% 29.86 in 10.0 mi SSW 9.2 mph - N/A   Clear
11:55 PM 17.6 °F 6.4 °F 15.8 °F 93% 29.86 in 10.0 mi SSW 9.2 mph - N/A   Clear